1495717201.12,17940,15.56,73790.8,3.97,2.59,2.59,0,*7B
1495717202.36,17941,15.63,73792.8,3.97,2.59,2.65,0,*75
1495717203.59,17942,15.63,73794.5,3.97,2.65,2.77,0,*7A
1495717204.85,17943,15.63,73794.5,3.97,2.39,2.39,0,*78
1495717206.07,17944,15.63,73794.8,3.95,2.89,2.91,0,*74
1495717207.33,17945,15.63,73794.0,3.97,3.71,3.75,0,*7A
1495717208.58,17946,15.63,73798.0,3.97,4.01,3.97,0,*75
1495717209.83,17947,15.63,73796.5,3.97,3.53,3.53,0,*7C
1495717211.07,17948,15.63,73798.5,3.97,3.59,3.75,0,*7D
1495717212.27,17949,15.63,73798.0,3.97,3.81,3.93,0,*71
1495717213.51,17950,15.63,73796.0,3.97,3.23,3.25,0,*7C
1495717214.73,17951,15.63,73792.3,3.95,3.49,3.59,0,*78
1495717215.92,17952,15.63,73788.5,3.93,3.81,3.97,0,*7B
1495717217.15,17953,15.63,73794.5,3.95,3.75,3.85,0,*74
1495717218.37,17954,15.63,73794.3,3.95,3.93,4.01,0,*70
1495717219.61,17955,15.63,73792.5,3.95,4.01,4.01,0,*7D
1495717220.82,17956,15.63,73790.8,3.93,3.93,4.05,0,*70
1495717222.05,17957,15.63,73792.0,3.97,3.93,3.97,0,*79
1495717223.28,17958,15.63,73796.0,3.97,3.85,4.01,0,*79
1495717224.49,17959,15.63,73796.3,3.99,4.05,4.15,0,*7C
1495717225.7,17960,15.63,73794.3,3.97,4.33,4.41,0,*7C
1495717226.91,17961,15.63,73794.5,3.97,4.33,4.53,0,*7E
1495717228.11,17962,15.63,73794.8,3.99,4.49,4.59,0,*74
1495717229.31,17963,15.63,73796.3,3.99,4.49,4.59,0,*75
1495717230.51,17964,15.63,73794.0,3.99,4.57,4.59,0,*7D
1495717231.7,17965,15.63,73798.0,3.99,4.37,4.49,0,*7B
1495717232.94,17966,15.63,73792.5,3.99,2.51,2.81,0,*7C
1495717234.15,17967,15.63,73796.0,3.99,3.75,3.85,0,*7F
1495717235.37,17968,15.63,73792.0,3.99,3.97,4.01,0,*77
1495717236.6,17969,15.63,73794.8,3.99,4.01,4.05,0,*7A
1495717237.87,17970,15.63,73794.5,4.01,3.41,3.45,0,*74
1495717239.13,17971,15.63,73792.0,4.01,3.33,3.41,0,*74
1495717240.33,17972,15.63,73792.3,4.01,3.85,3.89,0,*7E
1495717241.54,17973,15.63,73794.5,4.01,3.85,3.85,0,*73
1495717242.77,17974,15.63,73792.0,4.01,3.79,3.85,0,*77
1495717244.03,17975,15.63,73792.3,4.01,3.75,3.79,0,*79
1495717245.23,17976,15.63,73796.3,4.01,3.85,3.89,0,*7A
1495717246.49,17977,15.63,73792.5,4.01,3.75,3.79,0,*7B
1495717247.75,17978,15.63,73794.0,4.01,4.01,4.05,0,*7C
1495717248.96,17979,15.56,73790.3,4.01,4.15,4.23,0,*7C
1495717250.16,17980,15.63,73794.8,4.03,3.89,4.01,0,*7A
1495717251.37,17981,15.56,73790.8,4.03,4.05,4.07,0,*7E
1495717252.59,17982,15.63,73794.5,4.03,4.01,4.05,0,*7B
1495717253.79,17983,15.63,73790.8,4.05,4.11,4.19,0,*70
1495717255.01,17984,15.56,73788.8,4.05,4.07,4.07,0,*7F
1495717256.21,17985,15.63,73792.0,4.05,3.81,3.93,0,*7D
1495717257.44,17986,15.63,73788.3,4.05,3.53,3.59,0,*77
1495717258.67,17987,15.63,73794.8,4.05,3.93,3.97,0,*78
1495717259.88,17988,15.63,73794.5,4.03,3.79,3.81,0,*72
1495717261.11,17989,15.63,73796.8,4.03,3.67,3.79,0,*7B
1495717262.29,17990,15.63,73794.0,4.03,3.81,3.89,0,*74
1495717263.47,17991,15.63,73792.8,4.03,4.07,4.07,0,*7D
1495717264.67,17992,15.63,73794.5,4.05,4.11,4.19,0,*70
1495717265.88,17993,15.63,73792.8,4.05,4.33,4.33,0,*79
1495717267.09,17994,15.63,73794.8,4.07,2.91,2.89,0,*75
1495717268.34,17995,15.56,73788.8,4.05,1.47,1.43,0,*7B
1495717269.58,17996,15.56,73792.3,4.05,0.75,0.63,0,*7B
1495717270.82,17997,15.63,73792.0,4.05,0.47,0.41,0,*7B
1495717272.07,17998,15.63,73794.5,4.01,0.91,0.79,0,*70
1495717273.32,17999,15.63,73794.3,4.01,0.91,0.79,0,*71
1495717274.57,18000,15.63,73794.5,4.01,0.95,0.91,0,*75
1495717275.81,18001,15.63,73792.5,3.99,1.17,1.25,0,*77
1495717277.04,18002,15.63,73792.3,3.97,0.37,0.17,0,*79
1495717278.25,18003,15.63,73794.5,3.93,0.33,0.21,0,*7D
1495717279.46,18004,15.63,73794.0,3.93,0.59,0.59,0,*79
1495717280.66,18005,15.63,73794.0,3.87,1.01,1.01,0,*7D
1495717281.91,18006,15.63,73794.5,3.87,1.63,1.67,0,*7A
1495717283.11,18007,15.63,73792.8,3.85,1.71,1.83,0,*70
1495717284.28,18008,15.63,73796.8,3.85,2.27,2.35,0,*71
1495717285.53,18009,15.63,73798.0,3.83,2.77,2.89,0,*74
1495717286.76,18010,15.63,73796.5,3.87,2.61,2.69,0,*71
1495717287.98,18011,15.63,73798.0,3.85,2.43,2.47,0,*7E
1495717289.21,18012,15.63,73796.0,3.85,2.77,2.77,0,*79
1495717290.41,18013,15.63,73792.8,3.83,2.99,2.99,0,*7E
1495717291.66,18014,15.63,73796.5,3.83,2.81,2.81,0,*79
1495717292.91,18015,15.63,73794.5,3.83,2.59,2.59,0,*78
1495717294.09,18016,15.63,73794.5,3.81,2.61,2.61,0,*79
1495717295.3,18017,15.63,73792.3,3.79,2.91,2.95,0,*7B
1495717296.55,18018,15.63,73792.3,3.79,3.33,3.33,0,*70
1495717297.81,18019,15.63,73792.5,3.79,3.67,3.75,0,*72
1495717299.01,18020,15.63,73792.8,3.81,3.85,3.97,0,*7F
1495717300.2,18021,15.63,73792.5,3.83,4.07,4.11,0,*78
1495717301.38,18022,15.63,73794.0,3.85,4.11,4.19,0,*72
1495717302.58,18023,15.63,73798.0,3.85,4.23,4.31,0,*78
1495717303.8,18024,15.63,73794.8,3.87,4.01,4.11,0,*7F
1495717305.04,18025,15.56,73794.0,3.83,0.29,1.33,0,*41
1495717306.27,18026,15.63,73792.3,3.81,2.39,2.73,0,*74
1495717307.46,18027,15.63,73794.3,3.81,2.89,2.99,0,*7A
1495717308.7,18028,15.63,73794.8,3.79,1.85,1.83,0,*75
1495717309.95,18029,15.63,73794.5,3.79,1.63,1.63,0,*72
1495717311.2,18030,15.63,73792.3,3.79,1.55,1.63,0,*7F
1495717312.45,18031,15.63,73798.0,3.75,1.93,2.05,0,*7B
1495717313.68,18032,15.63,73796.0,3.77,2.39,2.51,0,*78
1495717314.93,18033,15.63,73796.8,3.75,2.43,2.47,0,*71
1495717316.16,18034,15.63,73796.5,3.75,2.35,2.43,0,*73
1495717317.33,18035,15.63,73796.3,3.77,2.91,2.99,0,*79
1495717318.56,18036,15.63,73794.5,3.77,3.41,3.45,0,*76
1495717319.78,18037,15.63,73794.3,3.79,3.55,3.67,0,*7C
1495717320.99,18038,15.63,73794.0,3.79,3.81,3.81,0,*72
1495717322.25,18039,15.63,73792.0,3.79,4.05,4.05,0,*73
1495717323.45,18040,15.63,73792.5,3.83,4.33,4.41,0,*7D
1495717324.66,18041,15.63,73798.5,3.83,4.33,4.41,0,*7C
1495717325.86,18042,15.63,73794.5,3.85,4.31,4.41,0,*7B
1495717327.04,18043,15.63,73796.0,3.85,4.33,4.41,0,*78
1495717328.23,18044,15.63,73794.0,3.85,4.33,4.33,0,*7A
1495717329.43,18045,15.63,73798.3,3.87,4.11,4.23,0,*78
1495717330.62,18046,15.63,73794.5,3.87,3.85,3.85,0,*7A
1495717331.8,18047,15.63,73794.0,3.89,3.93,3.93,0,*75
1495717333.01,18048,15.63,73792.0,3.89,4.05,4.15,0,*7B
1495717334.19,18049,15.63,73796.8,3.89,4.15,4.15,0,*7B
1495717335.41,18050,15.63,73794.3,3.89,2.21,2.25,0,*77
1495717336.59,18051,15.63,73792.8,3.93,1.79,1.83,0,*7C
1495717337.77,18052,15.63,73792.8,3.89,1.75,1.79,0,*7D
1495717338.97,18053,15.63,73796.3,3.89,1.63,1.75,0,*77
1495717340.2,18054,15.63,73794.3,3.89,1.51,1.67,0,*72
1495717341.42,18055,15.63,73792.0,3.89,1.97,1.97,0,*76
1495717342.67,18056,15.63,73792.0,3.87,2.09,2.21,0,*71
1495717343.9,18057,15.63,73794.3,3.89,2.39,2.47,0,*7D
1495717345.1,18058,15.63,73796.0,3.89,2.95,3.07,0,*71
1495717346.3,18059,15.63,73798.3,3.89,3.45,3.55,0,*7B
1495717347.51,18060,15.63,73796.0,3.89,3.75,3.85,0,*7F
1495717348.73,18061,15.63,73792.8,3.95,3.97,4.07,0,*72
1495717349.93,18062,15.63,73792.0,3.93,3.97,4.07,0,*77
1495717351.13,18063,15.63,73792.0,3.97,4.19,4.23,0,*75
1495717352.34,18064,15.63,73794.3,3.97,4.19,4.23,0,*72
1495717353.52,18065,15.63,73794.3,3.99,4.27,4.23,0,*70
1495717354.75,18066,15.63,73792.8,3.99,3.97,4.05,0,*7B
1495717355.95,18067,15.63,73800.5,3.99,4.01,4.11,0,*77
1495717357.14,18068,15.63,73796.5,3.99,4.23,4.33,0,*78
1495717358.32,18069,15.63,73798.0,3.99,4.37,4.49,0,*71
1495717359.5,18070,15.63,73796.0,3.99,4.11,4.11,0,*70
1495717360.76,18071,15.63,73794.3,4.01,4.01,4.05,0,*73
1495717361.96,18072,15.63,73792.3,4.03,4.05,4.07,0,*74
1495717363.17,18073,15.63,73794.5,4.01,4.11,4.15,0,*71
1495717364.38,18074,15.63,73792.5,4.01,4.15,4.23,0,*77
1495717365.58,18075,15.63,73794.0,4.01,4.11,4.15,0,*77
1495717366.79,18076,15.63,73796.0,4.01,4.15,4.27,0,*71
1495717367.99,18077,15.63,73798.0,4.01,4.11,4.23,0,*70
1495717369.19,18078,15.63,73794.3,4.03,4.41,4.59,0,*75
1495717370.39,18079,15.63,73798.3,4.03,4.45,4.59,0,*70
1495717371.56,18080,15.63,73794.8,4.03,4.49,4.49,0,*7B
1495717372.74,18081,15.63,73796.0,4.03,4.07,4.19,0,*75
1495717373.96,18082,15.63,73792.3,4.03,4.05,4.01,0,*7D
1495717375.19,18083,15.63,73794.5,4.01,4.05,4.11,0,*7F
1495717376.41,18084,15.63,73792.5,4.01,4.27,4.37,0,*7C
1495717377.62,18085,15.63,73794.0,4.05,4.53,4.57,0,*7C
1495717378.83,18086,15.63,73788.5,4.05,4.57,4.57,0,*7B
1495717380.06,18087,15.63,73794.5,4.05,4.53,4.63,0,*79
1495717381.32,18088,15.63,73790.0,4.05,3.75,3.71,0,*71
1495717382.55,18089,15.63,73790.5,4.05,2.89,2.91,0,*7D
1495717383.75,18090,15.63,73790.3,4.03,1.41,1.59,0,*73
1495717384.96,18091,15.63,73790.0,4.01,-0.11,-0.53,0,*7F
1495717386.18,18092,15.63,73790.5,4.01,-0.61,-0.93,0,*77
1495717387.44,18093,15.63,73792.5,3.97,-0.89,-1.13,0,*41
1495717388.62,18094,15.63,73792.3,3.93,-0.41,-0.49,0,*78
1495717389.82,18095,15.63,73792.5,3.93,0.71,0.67,0,*76
1495717391.05,18096,15.63,73794.5,3.89,1.25,1.25,0,*79
1495717392.28,18097,15.63,73794.5,3.89,1.63,1.67,0,*7C
1495717393.52,18098,15.63,73792.8,3.87,1.63,1.63,0,*79
1495717394.73,18099,15.63,73794.5,3.89,1.17,1.05,0,*75
1495717395.98,18100,15.63,73790.8,3.87,1.17,1.17,0,*79
1495717397.21,18101,15.63,73794.0,3.87,2.31,2.25,0,*7D
1495717398.41,18102,15.63,73792.5,3.87,2.31,2.35,0,*7F
1495717399.63,18103,15.63,73796.0,3.89,2.51,2.47,0,*73
1495717400.87,18104,15.63,73794.3,3.89,2.81,2.73,0,*7E
1495717402.1,18105,15.63,73796.3,3.89,3.15,3.15,0,*72
1495717403.33,18106,15.63,73794.0,3.89,2.81,2.85,0,*75
1495717404.56,18107,15.63,73794.8,3.89,2.69,2.81,0,*76
1495717405.78,18108,15.63,73794.0,3.93,3.37,3.49,0,*7D
1495717407.03,18109,15.63,73790.0,3.95,4.01,4.01,0,*73
1495717408.23,18110,15.63,73798.3,3.95,3.93,3.93,0,*7B
1495717409.43,18111,15.63,73796.3,3.95,3.81,3.81,0,*7A
1495717410.69,18112,15.63,73796.3,3.95,3.75,3.75,0,*79
1495717411.93,18113,15.63,73796.3,3.95,3.97,4.01,0,*70
1495717413.14,18114,15.63,73798.5,3.97,4.07,4.11,0,*7A
1495717414.35,18115,15.63,73794.5,3.97,4.33,4.41,0,*79
1495717415.54,18116,15.63,73798.3,3.99,4.27,4.33,0,*74
1495717416.74,18117,15.63,73794.0,3.97,4.07,4.11,0,*79
1495717417.92,18118,15.63,73794.8,3.99,3.85,3.85,0,*7F
1495717419.13,18119,15.63,73794.3,3.99,3.63,3.67,0,*7A
1495717420.33,18120,15.63,73792.8,3.99,3.53,3.63,0,*77
1495717421.51,18121,15.63,73794.8,3.99,3.85,3.85,0,*75
1495717422.72,18122,15.63,73794.8,3.99,4.11,4.05,0,*73
1495717423.89,18123,15.63,73788.8,4.03,4.07,4.19,0,*7C
1495717425.1,18124,15.63,73790.3,4.01,4.33,4.37,0,*72
1495717426.37,18125,15.63,73794.5,4.01,3.67,3.45,0,*77
1495717427.6,18126,15.63,73794.8,4.01,3.15,3.25,0,*77
1495717428.81,18127,15.63,73794.3,4.01,3.63,3.63,0,*75
1495717430.06,18128,15.63,73792.5,4.01,2.81,2.73,0,*77
1495717431.29,18129,15.63,73790.8,3.99,2.81,2.85,0,*79
1495717432.52,18130,15.63,73792.3,3.97,2.89,2.91,0,*72
1495717433.76,18131,15.63,73790.8,3.97,2.99,3.15,0,*7F
1495717434.98,18132,15.63,73790.5,3.95,3.25,3.37,0,*78
1495717436.22,18133,15.63,73792.5,3.95,3.49,3.53,0,*71
1495717437.42,18134,15.63,73792.8,3.95,3.81,3.85,0,*79
1495717438.62,18135,15.63,73794.5,3.97,4.07,4.19,0,*71
1495717439.83,18136,15.63,73790.3,3.97,4.23,4.33,0,*7C
1495717441.02,18137,15.63,73792.0,3.99,4.37,4.45,0,*77
1495717442.23,18138,15.63,73792.0,4.01,4.11,4.15,0,*7F
1495717443.43,18139,15.63,73792.3,4.01,4.11,4.15,0,*7E
1495717444.69,18140,15.63,73792.3,4.01,3.97,4.05,0,*78
1495717445.91,18141,15.63,73794.0,4.03,4.01,4.01,0,*77
1495717447.09,18142,15.63,73792.8,4.03,3.89,3.93,0,*7F
1495717448.3,18143,15.63,73792.8,4.03,3.71,3.81,0,*7A
1495717449.5,18144,15.63,73792.5,4.03,3.59,3.71,0,*78
1495717450.72,18145,15.63,73798.5,4.01,3.53,3.63,0,*72
1495717451.92,18146,15.63,73798.5,4.03,3.45,3.55,0,*71
1495717453.15,18147,15.63,73798.0,4.03,2.39,2.05,0,*7E
1495717454.37,18148,15.63,73792.8,4.01,1.79,1.59,0,*7E
1495717455.63,18149,15.63,73792.8,4.01,2.47,2.43,0,*79
1495717456.87,18150,15.63,73796.8,4.01,3.03,2.91,0,*7F
1495717458.09,18151,15.63,73794.8,4.01,2.61,2.69,0,*7C
1495717459.33,18152,15.63,73790.8,3.99,3.03,3.07,0,*75
1495717460.57,18153,15.63,73796.3,3.99,3.07,3.15,0,*73
1495717461.8,18154,15.63,73792.5,3.99,3.41,3.53,0,*74
1495717463.04,18155,15.63,73794.0,3.99,3.67,3.79,0,*79
1495717464.27,18156,15.63,73794.3,3.99,3.97,4.05,0,*79
1495717465.5,18157,15.63,73792.3,4.01,2.31,2.01,0,*71
1495717466.71,18158,15.63,73792.0,3.97,-0.45,-0.37,0,*70
1495717467.93,18159,15.63,73798.3,3.93,1.09,0.95,0,*44
1495717469.14,18160,15.63,73794.8,3.87,1.51,1.41,0,*7E
1495717470.39,18161,15.63,73794.3,3.87,2.13,2.01,0,*7D
1495717471.64,18162,15.63,73792.8,3.87,2.47,2.47,0,*7D
1495717472.84,18163,15.63,73794.8,3.85,2.69,2.65,0,*72
1495717474.09,18164,15.63,73794.5,3.83,2.81,2.77,0,*76
1495717475.29,18165,15.63,73792.5,3.83,2.91,2.99,0,*76
1495717476.55,18166,15.63,73792.0,3.83,3.15,3.11,0,*79
1495717477.73,18167,15.63,73794.0,3.81,3.25,3.25,0,*7E
1495717478.95,18168,15.63,73794.3,3.81,3.37,3.37,0,*71
1495717480.17,18169,15.63,73792.3,3.81,3.53,3.67,0,*77
1495717481.4,18170,15.63,73792.8,3.81,3.67,3.71,0,*7F
1495717482.61,18171,15.63,73792.0,3.81,3.71,3.81,0,*76
1495717483.78,18172,15.63,73790.8,3.81,3.81,3.85,0,*7E
1495717484.99,18173,15.63,73792.8,3.83,3.89,3.89,0,*79
1495717486.21,18174,15.63,73788.5,3.83,4.01,4.07,0,*78
1495717487.41,18175,15.63,73792.8,3.87,4.23,4.23,0,*7B
1495717488.61,18176,15.63,73788.8,3.87,4.23,4.23,0,*78
1495717489.81,18177,15.63,73788.5,3.87,4.23,4.33,0,*78
1495717491.01,18178,15.63,73792.3,3.87,4.11,4.11,0,*76
1495717492.19,18179,15.63,73790.5,3.89,4.15,4.27,0,*78
1495717493.39,18180,15.63,73794.8,3.89,4.05,4.11,0,*7A
1495717494.56,18181,15.63,73790.8,3.89,3.85,3.85,0,*7E
1495717495.76,18182,15.63,73790.5,3.93,3.23,3.25,0,*70
1495717496.99,18183,15.63,73790.8,3.93,3.11,3.19,0,*7F
1495717498.2,18184,15.63,73786.0,3.93,3.19,3.23,0,*79
1495717499.39,18185,15.63,73790.5,3.93,3.49,3.59,0,*70
1495717500.61,18186,15.63,73794.5,3.93,3.49,3.67,0,*7E
1495717501.79,18187,15.63,73790.0,3.93,3.81,3.81,0,*73
1495717502.96,18188,15.63,73788.5,3.93,3.89,3.89,0,*7C
1495717504.21,18189,15.63,73786.8,3.95,3.97,4.01,0,*73
1495717505.41,18190,15.63,73784.0,3.93,3.89,3.97,0,*7A
1495717506.6,18191,15.63,73782.8,3.93,3.55,3.71,0,*72
1495717507.8,18192,15.63,73784.0,3.93,3.25,3.37,0,*74
1495717508.99,18193,15.63,73784.8,3.93,3.45,3.55,0,*77
1495717510.16,18194,15.63,73786.5,3.93,3.55,3.59,0,*7D
1495717511.35,18195,15.63,73790.5,3.93,3.49,3.59,0,*71
1495717512.57,18196,15.63,73788.0,3.95,3.75,3.85,0,*7A
1495717513.78,18197,15.63,73790.3,3.93,2.77,2.61,0,*75
1495717515.0,18198,15.63,73790.5,3.93,2.55,2.39,0,*77
1495717516.21,18199,15.63,73788.3,3.89,2.91,2.81,0,*76
1495717517.46,18200,15.63,73790.8,3.87,3.15,3.19,0,*76
1495717518.71,18201,15.63,73788.0,3.87,3.41,3.45,0,*7F
1495717519.92,18202,15.63,73790.3,3.89,2.81,2.91,0,*77
1495717521.16,18203,15.63,73786.5,3.87,2.69,2.69,0,*79
1495717522.41,18204,15.63,73790.3,3.87,2.81,2.81,0,*7E
1495717523.64,18205,15.63,73790.3,3.87,3.29,3.23,0,*75
1495717524.86,18206,15.63,73788.3,3.87,3.63,3.67,0,*78
1495717526.06,18207,15.63,73790.0,3.89,3.79,3.93,0,*77
1495717527.25,18208,15.63,73788.3,3.89,3.93,3.93,0,*7C
1495717528.47,18209,15.63,73788.5,3.93,3.97,4.05,0,*7A
1495717529.67,18210,15.63,73794.0,3.89,3.85,4.01,0,*7E
1495717530.88,18211,15.63,73788.0,3.89,3.41,3.29,0,*7A
1495717532.11,18212,15.63,73790.0,3.89,2.51,2.51,0,*77
1495717533.36,18213,15.63,73790.8,3.87,2.69,2.81,0,*7E
1495717534.62,18214,15.63,73790.8,3.87,3.07,3.15,0,*7C
1495717535.85,18215,15.63,73790.0,3.89,3.33,3.41,0,*75
1495717537.08,18216,15.63,73788.8,3.87,2.95,3.03,0,*73
1495717538.33,18217,15.63,73794.5,3.87,3.15,3.19,0,*70
1495717539.58,18218,15.63,73798.0,3.87,3.41,3.45,0,*77
1495717540.78,18219,15.63,73794.0,3.87,3.63,3.63,0,*72
1495717542.03,18220,15.63,73794.5,3.87,2.81,2.69,0,*7E
1495717543.24,18221,15.63,73792.8,3.89,2.59,2.61,0,*7C
1495717544.49,18222,15.63,73788.5,3.87,3.07,3.07,0,*7A
1495717545.75,18223,15.63,73790.8,3.87,3.41,3.45,0,*7F
1495717546.98,18224,15.63,73788.5,3.89,3.41,3.45,0,*76
1495717548.24,18225,15.63,73790.3,3.87,3.07,3.15,0,*7E
1495717549.45,18226,15.63,73788.5,3.89,3.29,3.33,0,*7B
1495717550.68,18227,15.63,73788.0,3.89,3.33,3.45,0,*70
1495717551.87,18228,15.63,73792.5,3.87,3.55,3.55,0,*70
1495717553.09,18229,15.63,73792.0,3.89,3.23,3.23,0,*7F
1495717554.29,18230,15.63,73794.5,3.87,2.91,2.95,0,*7D
1495717555.52,18231,15.63,73792.5,3.85,2.77,2.81,0,*73
1495717556.77,18232,15.63,73794.0,3.83,2.77,2.89,0,*7E
1495717558.02,18233,15.63,73788.3,3.83,2.77,2.89,0,*7F
1495717559.25,18234,15.63,73788.3,3.81,3.07,3.07,0,*7B
1495717560.45,18235,15.63,73790.3,3.81,2.99,3.11,0,*7B
1495717561.69,18236,15.63,73790.5,3.81,3.11,3.15,0,*7D
1495717562.94,18237,15.63,73794.3,3.79,3.07,3.07,0,*7F
1495717564.2,18238,15.63,73790.0,3.79,3.23,3.41,0,*74
1495717565.37,18239,15.63,73792.0,3.81,3.55,3.59,0,*7A
1495717566.57,18240,15.63,73794.8,3.81,3.59,3.67,0,*75
1495717567.83,18241,15.63,73788.5,3.79,3.41,3.41,0,*7E
1495717569.03,18242,15.63,73790.5,3.81,3.59,3.67,0,*77
1495717570.26,18243,15.63,73788.0,3.81,3.71,3.71,0,*7B
1495717571.43,18244,15.63,73786.5,3.81,3.85,3.85,0,*7C
1495717572.65,18245,15.63,73790.0,3.85,3.97,3.97,0,*79
1495717573.85,18246,15.63,73786.5,3.83,3.85,3.85,0,*7C
1495717575.02,18247,15.63,73786.8,3.85,3.89,3.85,0,*77
1495717576.27,18248,15.63,73788.3,3.83,3.97,4.01,0,*7A
1495717577.46,18249,15.63,73792.3,3.87,4.23,4.27,0,*73
1495717578.66,18250,15.63,73794.5,3.87,4.23,4.27,0,*7B
1495717579.91,18251,15.63,73788.5,3.87,3.79,3.79,0,*7E
1495717581.15,18252,15.63,73790.5,3.87,2.85,3.03,0,*72
1495717582.37,18253,15.63,73786.5,3.87,1.01,1.67,0,*7C
1495717583.6,18254,15.63,73788.3,3.83,1.97,2.31,0,*70
1495717584.85,18255,15.63,73790.8,3.83,3.15,3.37,0,*7E
1495717586.05,18256,15.63,73790.0,3.83,3.59,3.63,0,*74
1495717587.25,18257,15.63,73790.8,3.83,3.89,3.89,0,*7C
1495717588.48,18258,15.63,73792.0,3.85,3.97,4.01,0,*7D
1495717589.68,18259,15.63,73792.3,3.85,3.71,3.81,0,*7B
1495717590.89,18260,15.63,73790.5,3.85,3.75,3.81,0,*75
1495717592.07,18261,15.63,73790.5,3.89,3.93,3.93,0,*73
1495717593.3,18262,15.63,73786.5,3.87,3.63,3.75,0,*79
1495717594.54,18263,15.63,73788.0,3.87,3.41,3.53,0,*7C
1495717595.78,18264,15.63,73786.8,3.89,3.23,3.33,0,*77
1495717597.01,18265,15.63,73790.3,3.89,3.45,3.45,0,*77
1495717598.24,18266,15.63,73786.5,3.89,3.67,3.79,0,*7B
1495717599.47,18267,15.63,73792.0,3.89,3.75,3.79,0,*79
1495717600.71,18268,15.63,73786.8,3.89,3.75,3.79,0,*76
1495717601.92,18269,15.63,73790.8,3.93,3.19,3.11,0,*78
1495717603.15,18270,15.63,73790.5,3.93,3.33,3.33,0,*78
1495717604.38,18271,15.63,73786.5,3.89,3.67,3.79,0,*7D
1495717605.6,18272,15.63,73790.5,3.89,1.89,1.67,0,*71
1495717606.78,18273,15.63,73788.8,3.89,0.05,-0.19,0,*60
1495717608.0,18274,15.63,73786.3,3.87,-0.85,-1.29,0,*4E
1495717609.24,18275,15.63,73786.8,3.83,-2.31,-2.75,0,*7C
1495717610.47,18276,15.63,73786.5,3.79,-3.19,-3.55,0,*72
1495717611.7,18277,15.63,73788.5,3.75,-3.19,-3.47,0,*7C
1495717612.92,18278,15.63,73786.8,3.71,-2.87,-2.99,0,*73
1495717614.14,18279,15.63,73786.5,3.65,-1.91,-1.79,0,*7E
1495717615.39,18280,15.63,73788.3,3.61,-1.09,-1.13,0,*71
1495717616.59,18281,15.63,73788.8,3.61,-0.45,-0.61,0,*7D
1495717617.77,18282,15.63,73792.0,3.59,-0.03,-0.15,0,*44
1495717619.01,18283,15.63,73790.0,3.57,0.21,0.17,0,*79
1495717620.25,18284,15.63,73788.0,3.57,0.67,0.67,0,*7B
1495717621.47,18285,15.63,73786.0,3.55,0.83,0.83,0,*78
1495717622.65,18286,15.63,73790.5,3.55,1.01,1.01,0,*7B
1495717623.82,18287,15.63,73790.0,3.55,1.41,1.41,0,*7A
1495717625.06,18288,15.63,73794.0,3.53,1.13,1.01,0,*70
1495717626.29,18289,15.63,73788.3,3.55,1.17,1.25,0,*75
1495717627.55,18290,15.63,73790.0,3.53,2.01,2.09,0,*72
1495717628.78,18291,15.63,73786.5,3.55,2.51,2.47,0,*7A
1495717629.99,18292,15.63,73784.0,3.55,1.79,2.17,0,*75
1495717631.23,18293,15.63,73786.8,3.55,2.01,2.17,0,*78
1495717632.48,18294,15.63,73794.3,3.53,2.55,2.55,0,*7E
1495717633.66,18295,15.63,73790.8,3.55,2.95,2.95,0,*79
1495717634.89,18296,15.63,73790.5,3.55,3.11,3.19,0,*72
1495717636.15,18297,15.63,73788.3,3.57,3.33,3.41,0,*7C
1495717637.32,18298,15.63,73788.0,3.59,3.63,3.63,0,*78
1495717638.49,18299,15.63,73788.3,3.59,3.55,3.63,0,*7C
1495717639.74,18300,15.63,73788.3,3.61,3.41,3.53,0,*70
1495717640.97,18301,15.63,73788.8,3.63,1.85,1.51,0,*79
1495717642.17,18302,15.63,73788.5,3.63,-3.83,-3.83,0,*73
1495717643.35,18303,15.63,73784.0,3.59,-3.03,-3.15,0,*7C
1495717644.57,18304,15.63,73784.5,3.57,-1.63,-1.67,0,*76
1495717645.77,18305,15.63,73784.5,3.57,0.05,-0.07,0,*5C
1495717647.02,18306,15.63,73790.0,3.57,0.55,0.59,0,*7C
1495717648.22,18307,15.63,73790.5,3.55,1.05,1.17,0,*70
1495717649.43,18308,15.63,73790.8,3.55,1.33,1.41,0,*79
1495717650.67,18309,15.63,73792.8,3.57,0.67,0.71,0,*78
1495717651.89,18310,15.63,73788.3,3.57,0.21,0.09,0,*4D
1495717653.13,18311,15.63,73788.8,3.53,0.55,0.67,0,*73
1495717654.37,18312,15.63,73790.5,3.55,1.29,1.33,0,*7C
1495717655.6,18313,15.63,73786.0,3.53,1.41,1.47,0,*76
1495717656.8,18314,15.63,73788.5,3.55,1.41,1.55,0,*74
1495717658.01,18315,15.63,73790.0,3.55,1.63,1.75,0,*77
1495717659.21,18316,15.63,73788.5,3.55,2.61,2.73,0,*70
1495717660.45,18317,15.69,73794.3,3.57,2.99,3.11,0,*71
1495717661.65,18318,15.63,73794.0,3.59,3.25,3.33,0,*76
1495717662.88,18319,15.63,73788.3,3.59,3.33,3.33,0,*70
1495717664.13,18320,15.63,73786.3,3.61,3.41,3.53,0,*72
1495717665.36,18321,15.63,73786.0,3.63,3.67,3.75,0,*71
1495717666.57,18322,15.69,73792.5,3.63,3.79,3.89,0,*7E
1495717667.76,18323,15.63,73786.5,3.65,3.81,3.93,0,*75
1495717668.99,18324,15.63,73782.5,3.67,3.93,4.05,0,*7B
1495717670.25,18325,15.63,73780.5,3.67,4.01,4.05,0,*76
1495717671.48,18326,15.69,73792.5,3.71,4.31,4.41,0,*71
1495717672.68,18327,15.63,73784.5,3.73,3.59,3.79,0,*77
1495717673.94,18328,15.63,73784.8,3.71,1.55,2.13,0,*79
1495717675.17,18329,15.63,73786.3,3.67,3.53,3.63,0,*7D
1495717676.4,18330,15.63,73780.8,3.67,3.29,3.41,0,*78
1495717677.66,18331,15.63,73786.8,3.71,3.37,3.49,0,*79
1495717678.91,18332,15.63,73784.5,3.71,3.49,3.49,0,*73
1495717680.14,18333,15.63,73790.8,3.73,3.41,3.49,0,*78
1495717681.37,18334,15.63,73790.5,3.71,2.01,1.83,0,*7C
1495717682.57,18335,15.63,73788.0,3.71,2.27,2.27,0,*74
1495717683.8,18336,15.63,73790.0,3.71,2.65,2.73,0,*70
1495717685.01,18337,15.63,73786.0,3.67,2.95,2.95,0,*71
1495717686.23,18338,15.63,73784.8,3.67,3.19,3.29,0,*7D
1495717687.49,18339,15.63,73784.5,3.67,2.85,2.85,0,*7F
1495717688.74,18340,15.63,73784.3,3.67,3.07,3.19,0,*7E
1495717689.97,18341,15.63,73784.3,3.67,3.53,3.55,0,*76
1495717691.17,18342,15.63,73784.5,3.67,3.63,3.63,0,*73
1495717692.4,18343,15.63,73786.8,3.67,3.41,3.55,0,*77
1495717693.62,18344,15.63,73784.8,3.71,3.55,3.67,0,*73
1495717694.88,18345,15.63,73788.8,3.71,3.71,3.75,0,*77
1495717696.08,18346,15.63,73786.5,3.73,3.79,3.85,0,*71
1495717697.33,18347,15.63,73784.3,3.71,3.71,3.75,0,*75
1495717698.53,18348,15.63,73788.5,3.73,3.53,3.63,0,*7F
1495717699.73,18349,15.63,73790.0,3.73,3.63,3.71,0,*7E
1495717700.99,18350,15.63,73790.0,3.71,3.33,3.33,0,*77
1495717702.21,18351,15.63,73788.0,3.71,3.49,3.55,0,*7B
1495717703.46,18352,15.63,73790.3,3.71,3.33,3.33,0,*75
1495717704.71,18353,15.63,73788.0,3.71,3.33,3.37,0,*70
1495717705.95,18354,15.63,73790.8,3.71,-1.13,-3.39,0,*79
1495717707.19,18355,15.63,73790.8,3.63,-2.07,-2.63,0,*73
1495717708.43,18356,15.63,73786.8,3.61,0.63,0.51,0,*71
1495717709.65,18357,15.63,73784.3,3.59,1.47,1.47,0,*7A
1495717710.92,18358,15.63,73786.3,3.57,2.17,2.17,0,*7B
1495717712.12,18359,15.63,73786.8,3.55,2.69,2.61,0,*70
1495717713.36,18360,15.63,73786.3,3.53,2.35,2.59,0,*7E
1495717714.61,18361,15.63,73790.3,3.53,1.25,1.51,0,*76
1495717715.87,18362,15.63,73786.0,3.53,2.01,2.13,0,*75
1495717717.13,18363,15.63,73786.3,3.53,2.69,2.69,0,*77
1495717718.36,18364,15.63,73786.5,3.51,2.77,2.77,0,*72
1495717719.59,18365,15.63,73784.8,3.51,2.43,2.43,0,*73
1495717720.82,18366,15.63,73784.5,3.51,2.77,2.77,0,*70
1495717722.08,18367,15.63,73790.8,3.49,3.03,3.03,0,*78
1495717723.29,18368,15.63,73788.8,3.49,2.91,2.91,0,*77
1495717724.53,18369,15.63,73788.5,3.51,3.07,3.15,0,*7C
1495717725.74,18370,15.63,73790.3,3.51,3.29,3.37,0,*78
1495717726.97,18371,15.69,73792.3,3.51,3.37,3.37,0,*76
1495717728.17,18372,15.63,73790.3,3.51,3.19,3.25,0,*7A
1495717729.36,18373,15.63,73790.8,3.51,3.25,3.29,0,*78
1495717730.61,18374,15.63,73790.8,3.49,2.77,2.77,0,*7A
1495717731.86,18375,15.63,73786.8,3.53,3.19,3.19,0,*70